Location: Bambrugge
(50.9212°N, 3.9299°E)
Time: 11:34:12
(UTC+00:00)

Cosmos 1709 Rocket - Pass Details

Date: 23 May 2024
Orbit: 948 x 1001 km, 82.9° (Epoch: 14 June)

Event Time Altitude Azimuth Distance (km) Brightness Sun altitude
Exits shadow 01:49:42 15° 188° (S) 2,410 5.5 -13.0°
Maximum altitude 01:55:08 90° 286° (WNW) 1,003 4.1 -12.6°
Drops below altitude 10° 02:01:33 10° 10° (N) 2,782 7.5 -12.0°
Sets 02:04:06 0° 11° (N) 3,738 8.4 -11.8°
